Home   Weather   Schärding   Past weeks

Flag for Austria Past Weather in Schärding, Upper Austria, Austria — Yesterday and Last 2 Weeks

Now
53 °F

Cool.


Feels Like: 53 °F
Forecast: 43 / 69 °F
Wind: 1 mph from West

Location: Rohrbach

Current Time: Sep 26, 2016 at 10:59:54 AM

Latest Report: Sep 26, 2016 at 10:00 AM


Visibility: N/A

Pressure: 30.20 "Hg

Humidity: 88%

Dew Point: 50 °F

Location of SchärdingLocation

Past Weather in Schärding — Graph

°F

Schärding Temperature Yesterday

Maximum temperature yesterday: 68 °F (at 3:00 PM)
Minimum temperature yesterday: 46 °F (at 7:00 AM)
Average temperature yesterday: 56 °F

High & Low Weather Summary for the Past Weeks

 TemperatureHumidityPressure
High83 °F (Sep 12, 3:00 PM)100% (Sep 19, 4:00 AM)30.39 "Hg (Sep 19, 4:00 AM)
Low42 °F (Sep 23, 7:00 AM)37% (Sep 13, 4:00 PM)29.78 "Hg (Sep 17, 2:00 AM)
Average60 °F76%30.04 "Hg
* Reported Sep 11 10:00 AM — Sep 26 10:00 AM, Schärding, Weather by CustomWeather, © 2016

Note: Actual official high and low records may vary slightly from our data, if they occured in-between our weather recording intervals... More about our weather records

Advertising

Schärding Weather History for the Previous 24 Hours

Scroll right to see more
 ConditionsComfort  
Time TempWeatherWind HumidityBarometerVisibility
10:00 AM
Mon, Sep 26
53 °FCool.1 mph88%30.20 "HgN/A
9:00 AM47 °FCool.No wind95%30.22 "HgN/A
8:00 AM46 °FCool.1 mph96%30.21 "HgN/A
7:00 AM46 °FCool.1 mph96%30.21 "HgN/A
6:00 AM46 °FCool.No wind97%30.20 "HgN/A
5:00 AM46 °FCool.No wind97%30.19 "HgN/A
4:00 AM47 °FCool.No wind95%30.18 "HgN/A
3:00 AM48 °FCool.No wind96%30.19 "HgN/A
2:00 AMN/APassing clouds.10 mphN/AN/A3 mi
1:00 AM49 °FCool.No wind94%30.19 "HgN/A
12:00 AM51 °FCool.No wind92%30.19 "HgN/A
11:00 PM
Sun, Sep 25
51 °FCool.No wind92%30.18 "HgN/A
10:00 PM53 °FCool.1 mph89%30.17 "HgN/A
9:00 PM55 °FCool.No wind85%30.15 "HgN/A
8:00 PM57 °FCool.No wind79%30.14 "HgN/A
7:00 PM61 °FCool.No wind71%30.10 "HgN/A
6:00 PM64 °FMild.2 mph61%30.08 "HgN/A
5:00 PM66 °FMild.2 mph60%30.07 "HgN/A
4:00 PM66 °FMild.2 mph59%30.08 "HgN/A
3:00 PM68 °FMild.2 mph53%30.08 "HgN/A
2:00 PM67 °FMild.1 mph56%30.10 "HgN/A
1:00 PM66 °FMild.2 mph55%30.13 "HgN/A
12:00 PM65 °FMild.1 mph57%30.14 "HgN/A
11:00 AM61 °FCool.1 mph66%30.17 "HgN/A
10:00 AM56 °FCool.1 mph78%30.19 "HgN/A
Weather by CustomWeather, © 2016

See weather overviewHow to use our weather pages